CAPE
1173 1462 986 1518 1525 1544 1398 1449 1404 1780 1828 1867 1921 1938 2095 2207 2204 2242 2160 2126 2003 2014 1993 1880 1649 1475 1458 1391 1173 1168 1346 1286 1142 1073 1120 1228 1041 1281 1311 1320 1327 1335 1359 1437 1500 1331 1803 1921 1611 1419 1332 1236 1042 977 933 888 820 1158 1291 1283 1248 1196 1174 1277 1141 708 491 559 480 322 92 268 194 234 291 292 233 158 149 82 96 0 0 0 0
1449 1470 1264 1012 1409 1500 1427 1381 1392 1699 1818 1870 2014 2162 1924 2070 2032 2070 2125 2064 1999 2027 1886 1658 1548 1398 1297 1138 1322 1295 1337 1269 1166 1164 1122 1118 1057 890 1215 1286 1322 1322 1398 1518 1334 1148 1416 1381 1359 1380 1271 1169 1115 1048 949 782 663 803 939 926 988 896 1002 852 781 558 507 487 478 450 462 431 327 83 88 99 47 34 51 188 103 14 0 1 0
1517 1513 1292 1225 1566 1411 1494 1359 1501 1653 1735 1858 1982 2066 2117 2106 2064 2034 2103 2018 1991 1855 1500 1579 1352 1190 1166 1144 1360 1423 1487 1385 1285 1200 1131 1036 1123 968 988 953 1052 1084 1019 999 976 882 1050 1370 1309 1359 1256 1030 894 937 844 892 709 780 791 746 688 761 741 669 794 703 666 583 575 496 377 346 397 344 216 87 118 173 344 452 285 55 0 0 2
1447 1598 1449 1540 1510 1437 1417 1459 1641 1574 1713 1790 1789 1726 1714 1850 1933 1786 1842 1925 1849 1698 1654 1463 1273 1196 1297 1471 1475 1521 1571 1406 1353 1287 1165 1120 1085 951 801 796 716 691 758 942 902 934 925 1354 1329 1138 1018 903 844 837 840 724 998 871 791 783 740 919 746 752 944 779 403 394 404 500 390 392 349 337 366 349 330 266 246 320 327 29 0 0 3
1475 1504 1434 1190 1120 1447 1527 1562 1607 1592 1714 1718 1752 1771 1730 1817 1833 1790 1793 1764 1710 1631 1502 1443 1355 1578 1656 1667 1630 1633 1539 1397 1413 1355 1248 1132 1094 892 830 851 816 737 665 528 714 902 832 1077 710 1038 1026 932 885 842 846 788 947 898 862 799 848 746 728 935 938 803 872 714 791 530 424 254 431 407 422 302 306 212 186 202 212 92 0 3 3
1600 1557 1217 1054 1019 1497 1638 1648 1511 1611 1666 1704 1672 1752 1777 1752 1781 1816 1775 1723 1662 1678 1562 1636 1735 1867 1866 1891 1883 1778 1641 1598 1538 1432 1537 1429 1274 1034 964 880 878 897 891 949 960 1038 927 948 948 915 1069 958 878 926 853 895 849 855 884 880 797 642 686 702 692 699 651 749 395 439 618 473 320 206 88 286 146 385 338 234 175 160 46 0 1
1643 1646 1427 1185 1212 1359 1644 1596 1457 1546 1630 1681 1728 1702 1714 1784 1806 1860 1890 1881 1858 1832 1813 1785 1895 1962 1970 1986 1962 1844 1733 1660 1568 1451 1529 1573 1516 1414 1235 1138 1024 1089 1145 1031 1053 914 1069 1083 1011 1035 1142 1015 911 1016 946 927 871 845 746 774 786 751 643 646 564 537 778 965 816 782 766 496 399 363 472 502 539 325 140 182 210 178 5 0 0
1271 1442 1384 1302 1304 1604 1657 1607 1587 1571 1553 1557 1667 1680 1730 1769 1850 1913 1946 1933 1823 1812 1827 1858 1908 2068 2074 1983 1901 1801 1646 1459 1380 1324 1572 1618 1575 1462 1254 1127 1120 995 1051 1058 1065 1140 1089 1052 947 973 1021 1104 1060 903 1042 787 761 931 868 626 501 516 532 560 495 509 398 773 710 747 842 721 537 435 492 350 202 206 235 222 212 164 60 11 1
1279 1276 1266 1437 1355 1569 1732 1673 1617 1553 1536 1589 1600 1677 1692 1734 1826 1868 1887 1883 1916 1943 1964 1960 1997 2042 1984 1856 1740 1690 1580 1535 1662 1723 1762 1694 1488 1591 1489 1315 1241 1142 1140 1247 1155 1192 1097 1101 986 1180 1292 1186 1017 1149 967 929 1285 1412 1424 1350 1283 981 693 556 498 564 1136 861 839 786 675 646 602 436 479 416 413 274 233 230 242 192 56 0 0
1284 1427 1397 1609 1471 1805 1717 1711 1644 1556 1592 1550 1609 1568 1733 1760 1873 1957 1970 2045 2134 2134 2061 2022 2017 1951 1851 1722 1687 1712 1331 1509 1160 1548 1409 1372 1442 1622 1402 1365 1210 1207 1134 1099 1042 1054 1086 1167 1268 1441 1428 1203 1318 1314 1262 1392 1405 1394 1335 1332 1136 1341 1061 534 474 715 880 928 916 879 694 1633 628 552 212 36 81 348 272 346 485 511 140 0 0
1532 1323 1323 1525 1463 1706 1678 1741 1717 1575 1580 1682 1722 1827 1754 1854 2050 2085 2179 2168 2167 2156 2094 1991 1932 1889 1868 1800 1762 1276 1191 1269 1020 1422 1661 1599 1613 1392 1212 1274 1306 1266 1342 1342 1258 1211 1236 1159 1510 1658 1491 1435 1367 1364 1418 1497 1446 1326 1214 1239 1146 1155 1323 874 596 987 818 751 770 313 336 622 618 474 321 357 413 498 323 203 396 256 2 2 2
1442 1423 1500 1635 1750 1611 1724 1780 1725 1785 1790 1839 1829 1861 1939 2043 2239 2250 2167 2169 2152 2070 2036 2044 2056 1998 1836 1738 1294 1228 1257 1213 1384 1427 1350 1407 1324 1084 1377 1428 1408 1406 1470 1620 1397 1301 1406 1776 1761 1698 1604 1482 1481 1469 1344 1352 1241 1139 1097 1042 1140 890 850 1336 1146 879 1103 1025 951 1013 881 795 559 562 458 801 647 447 354 262 231 205 20 13 1
1163 1415 1764 1748 1405 1691 1767 1773 1884 1965 1924 1876 1936 1975 2068 2081 2158 2180 2067 2042 1973 2018 2003 2032 2153 2140 2093 1910 1652 1268 1194 1165 1179 1008 1222 1224 1197 1393 1493 1375 1526 1579 1554 1570 1748 1707 1734 1733 1591 1576 1508 1467 1452 1448 1361 1197 1054 1074 1106 1130 1081 1116 750 1201 1061 945 1013 1054 942 897 696 716 555 425 402 500 555 516 418 311 288 204 33 16 6
1480 1389 1885 1558 1314 1851 1758 1841 1969 2088 2089 2059 2055 1969 2071 2061 2022 2063 2048 1988 2024 2031 2063 2196 2211 2205 2189 2023 1660 1276 1197 1248 1232 1160 1439 1473 1494 1468 1512 1506 1495 1604 1683 1645 1456 1550 1532 1495 1451 1508 1458 1511 1316 1294 1222 1072 1148 1111 1230 1469 1198 951 1126 1232 1539 969 978 886 1112 918 989 853 513 625 569 533 476 349 316 386 332 236 147 2 1
1500 1431 1869 1805 1503 1370 1930 1935 1992 2056 1994 1978 1947 1972 2028 2067 2048 1982 1997 2110 2116 2180 2234 2168 2242 2150 1820 1736 1722 1631 1602 1398 1483 1468 1576 1611 1606 1596 1641 1496 1458 1688 1720 1625 1612 1637 1571 1490 1514 1428 1337 1370 1316 1156 1024 1072 1173 1247 1523 1622 1227 1156 1052 1049 1036 1160 1126 833 818 743 882 774 635 942 550 521 461 505 362 331 240 345 259 80 0
1594 2061 2150 1760 1525 1776 1539 2013 1995 2000 1983 1980 2003 2108 2167 2166 2101 2100 2097 2147 2160 2186 2247 2229 2188 1647 1365 1533 1710 1445 1489 1511 1704 1855 1787 1681 1579 1549 1426 1499 1336 1463 1637 1664 1645 1676 1513 1309 1243 1223 1128 1098 1254 1143 1036 1054 1281 1454 1440 1701 1491 954 1223 1412 1327 1210 1275 1152 930 966 835 561 666 764 554 474 430 421 541 402 281 158 154 98 2
2219 2266 1790 2124 1140 1243 1048 1288 1542 2118 2111 2104 2184 2170 2263 2209 2178 2180 2136 2090 2219 2239 2212 2190 2202 1829 1628 1765 1892 1931 1822 1793 1791 1899 1876 1939 1891 1565 1583 1247 1119 1182 1552 1696 1720 1473 1305 1189 1111 1078 1039 1020 976 1216 1118 1262 1496 1572 1597 1272 1496 994 1003 1402 1269 1346 1337 1071 967 1088 984 744 959 831 658 536 473 619 388 291 258 169 246 30 1
2499 1996 2089 1309 1512 1220 1104 1200 1936 2162 2348 2309 2272 2142 2061 2235 2174 2194 2152 2070 2074 1974 1881 1461 1562 1685 1814 1920 2026 1988 1873 1916 1906 1881 1878 1956 1985 1724 1456 1449 1489 1583 1726 1714 1453 1213 1088 1045 1083 1122 1146 1076 1055 1117 1335 1111 1400 1437 1217 1227 1438 1075 1130 1235 1347 1243 1079 1016 999 937 984 1180 723 1038 572 512 361 381 320 238 260 266 207 190 153
2110 1472 1210 1916 1390 1306 1217 1048 988 1933 2356 2465 1684 2137 1997 2265 2243 2211 2070 2112 2038 1564 1504 1366 1376 1866 1965 2178 2145 2012 1992 1992 1920 1882 1934 1900 1938 1883 1573 1632 1645 1623 1702 1659 1353 979 789 812 773 991 1129 1116 1212 1361 1357 1312 1310 1033 1167 1522 1349 1243 1124 1462 1333 1174 978 1160 998 980 1014 833 1287 692 719 545 419 417 273 258 247 234 240 198 135
1890 1688 1624 1660 1492 1436 1456 1232 1107 1126 1097 1073 2264 1606 1930 2086 1918 1615 1685 1885 1738 1656 1593 1612 1808 2088 2180 2143 2037 2060 1980 1663 1855 1921 1891 1926 1974 1749 1729 1625 1456 1579 1723 1627 1406 1155 1115 1136 1188 1142 1176 1165 1114 1223 1291 1268 870 838 1212 1481 1840 1377 1554 1703 1297 1109 1146 927 907 932 960 1111 1184 756 699 515 405 409 289 295 263 237 211 214 154
1626 1520 1499 1614 1538 1421 1514 1484 1197 1542 2129 2165 2440 2722 2148 1836 1452 1610 1835 1793 1628 1639 1867 2034 2193 2168 2191 2036 1966 1728 1627 1165 1670 1956 1896 1886 1956 1867 1572 1593 1626 1408 1691 1676 1601 1442 1293 1239 1355 1325 1019 956 943 1076 1057 855 726 618 750 1484 1760 2007 1574 1446 1392 1181 1178 936 1000 972 877 1007 1146 817 719 569 488 384 325 264 242 219 244 311 219
1573 1498 1686 1544 1407 1482 1480 1392 1428 1179 1111 1819 1373 1296 2035 1780 2460 1743 1884 1840 2041 1877 1617 1707 1525 1786 2034 2158 2101 1250 1042 1560 1429 1856 2152 1611 1591 1484 1457 1297 1312 1285 1538 1662 1596 1572 1472 1348 1326 1318 928 1018 585 998 548 616 495 628 719 691 1858 1479 1579 1429 1371 1242 1133 1104 940 760 1038 1021 892 823 735 644 451 392 317 197 236 279 367 355 259
1428 1388 1548 1476 1476 1442 1345 1428 1438 1484 1898 1402 1502 1146 1538 1201 1096 1736 1414 1484 1494 1716 1222 1536 1891 1615 1387 1957 2138 1948 1455 1012 2076 2012 1546 1500 1889 1598 1417 1217 1225 1130 1372 1644 1662 1681 1526 1512 1430 1192 1128 352 1081 392 494 571 548 551 549 1575 1453 1413 1522 1420 1353 1154 1029 1220 950 1009 1069 1091 768 826 778 650 408 350 221 260 296 390 357 268 238
1486 1533 1566 1364 1574 1527 1338 1490 1514 1216 1150 1634 2060 1067 1092 1099 1165 1128 1188 1271 1597 1192 1762 1711 1961 1840 1803 2112 2107 2041 1904 1423 1576 1579 1523 1587 1846 1528 1359 1419 1426 1242 1429 1538 1623 1684 1701 1439 1351 1220 1473 997 763 481 520 407 661 752 1230 1230 1449 1533 1525 1488 1207 1230 1125 858 856 1178 1008 1165 1077 746 769 696 492 432 342 268 382 442 336 297 276
1347 1359 1422 1440 1598 1693 1658 1516 1383 1051 1146 1809 1250 1164 866 889 1103 1061 965 1124 1090 1729 1718 1718 1500 1461 1437 1757 1953 1854 2113 1844 1577 1483 1910 1344 1342 1432 1323 1080 994 1376 1347 1454 1338 1451 1649 1017 1200 1235 1062 687 536 531 464 502 507 559 825 1197 1226 1350 1343 1227 1309 1269 1234 1264 961 1276 1000 1230 1164 1023 836 673 572 451 255 216 292 240 251 235 259
1346 1326 1460 1628 1652 1631 1535 1478 1331 1256 1757 1755 1677 1411 1139 1231 1065 1177 1148 1105 1161 1138 1045 1187 1489 1510 1338 1783 1890 2003 1951 1290 1075 1112 1712 1855 1704 1686 1325 1635 1554 1466 1052 1560 1683 1810 1996 1702 1287 855 809 670 591 613 584 541 539 433 506 706 894 1116 1301 1285 1300 1276 1312 1391 952 1276 1341 1157 1279 1403 787 742 630 520 421 197 310 357 267 260 293
1453 1552 1654 1551 1502 1470 1408 1352 1147 1110 1402 1227 1251 1474 1632 1539 1300 1252 1488 1244 1499 1650 1873 2035 1922 1704 1753 1768 1794 1832 1798 1864 1705 1594 1872 1688 1572 1558 1553 1559 1653 1530 1615 1639 1794 1840 1722 1783 1372 1072 727 644 632 690 489 522 539 465 431 452 630 906 1042 1172 1288 1373 1211 1365 1345 1406 1445 1072 1405 1317 774 733 636 534 372 325 262 255 274 179 285
1269 1326 1402 1504 1390 1432 1480 1470 1348 1594 1346 936 1316 1956 2036 1441 1108 1334 973 1164 1869 1808 1940 2064 2100 2108 2072 1986 1828 1934 1911 1829 1642 1612 1632 1650 1559 1566 1557 1500 1452 1836 1948 1714 1767 1969 1972 1561 1220 748 537 588 541 520 618 579 544 481 493 512 624 845 1133 1176 1211 1212 1322 1535 1469 1402 1502 1389 1533 1793 731 565 719 565 473 378 352 267 108 201 294
1025 791 1299 1163 1224 1029 1224 1362 1566 1516 1356 1297 1362 1723 1092 1256 1276 978 1849 1471 1878 1956 2006 2169 2070 2114 2308 2210 2198 2044 1721 1650 1475 1433 1628 1716 1641 1539 1480 1476 1792 1540 1677 1964 2018 1951 1903 1379 1068 984 994 993 639 600 414 625 541 430 397 421 551 677 932 1218 1562 1522 1238 1539 1614 1565 1587 1629 1648 1402 1022 663 649 498 511 312 217 336 157 170 338
893 1000 1362 1114 960 1182 1164 1061 1080 898 1566 1730 1476 1292 1561 1962 1733 1694 1792 1711 1791 1820 2101 2136 2156 2020 2147 2350 2132 1759 1640 1258 1215 1268 1280 1769 1281 1155 1400 1574 1474 1435 1565 1673 1905 1668 1477 1480 1385 1262 1086 1072 931 698 552 529 412 444 350 344 408 630 622 1098 1375 1365 1142 1557 1630 1388 1649 1706 1565 1208 1346 798 566 504 482 260 224 298 260 157 137
848 1385 1361 1350 1186 1114 966 878 955 1532 1724 1563 1329 1368 1047 1499 1536 1829 1820 1744 1755 1806 1926 2208 2270 2185 2361 2403 1872 1599 1778 1641 1072 1032 1701 1510 1034 777 852 1287 1688 1710 1662 1757 1844 1682 1616 1473 1417 1466 1375 1292 955 816 334 540 505 433 153 151 461 647 507 676 1120 1048 1096 1370 1826 1657 1654 1656 1616 1588 1335 983 1122 635 465 346 176 284 257 203 154
852 1008 1243 1137 1105 966 781 855 1217 1860 1519 1231 1264 792 824 1534 1855 1813 1747 1711 1952 1941 1997 2082 2086 1962 1985 2001 1863 1873 1685 1534 1660 1549 1332 1466 1128 724 790 1021 1366 1646 1703 1600 1049 1445 1492 1236 1596 1748 1749 1476 1012 809 594 588 513 414 152 158 382 419 457 509 669 875 1120 1500 1624 2020 1890 1316 1537 1672 1547 1046 884 872 647 461 242 261 242 231 229
1001 1075 1150 1156 1152 1165 1084 1214 1442 1764 1515 1330 1108 1298 1492 1834 2007 1920 1837 1946 1952 2133 2025 1875 2116 1828 1588 1710 1517 1498 1433 1199 1155 853 934 1141 1285 956 895 974 999 1225 1527 1423 1088 1624 1259 1590 1678 1530 1396 898 830 792 580 704 581 479 500 439 448 390 419 424 545 722 947 1184 1299 1538 1663 1908 1711 1682 1373 1399 924 1020 913 1384 402 222 204 232 173
1103 715 1050 1158 1320 1499 1671 1482 1067 1065 1698 1394 1515 1645 1850 1773 1922 1860 1805 1988 2035 1928 1979 1820 1412 1191 1587 1670 1541 1302 1221 1137 1034 952 779 868 1159 997 874 1378 1119 1484 1546 1709 1586 1432 1154 1394 1476 1356 1213 1360 1341 1100 880 925 835 605 536 563 473 576 496 488 617 737 1034 1215 1434 1856 1612 1197 1289 1699 1454 1458 1289 1047 1004 864 717 375 214 223 166
1100 941 1090 1126 1621 1454 1530 1650 1560 1680 1753 1613 1639 1669 1990 1857 1931 1995 2003 1882 2019 1916 1558 1540 1738 1646 1676 1565 1444 1569 1473 1332 1001 923 1056 809 1135 1432 1320 1371 1086 1270 1361 1526 1553 1427 1184 1132 1454 1014 1420 1455 1432 1101 1066 1193 1095 843 788 711 626 528 566 644 544 647 748 1094 1649 1814 1827 1326 1122 1259 1325 1410 1653 988 957 838 902 747 510 341 285
1311 1201 1208 1436 1413 1546 1650 1687 1849 2062 1859 1825 1929 2059 2093 2276 2195 2150 2434 2356 2020 2073 2333 2008 1729 1915 1887 1933 1750 1590 1504 1350 1199 1093 1307 1118 1069 1206 1268 1124 1229 1113 1524 1576 1422 892 819 1647 1340 888 1356 1186 1212 1207 1117 1220 1102 1106 1002 957 938 774 876 821 818 673 787 910 952 1624 1656 1474 1683 1353 1318 1380 1284 1243 738 835 957 968 795 620 562
1648 1428 1453 1705 1575 1782 1773 1711 1905 1759 1542 1383 2163 2339 2430 2523 2642 2258 1942 1902 1777 1498 1274 1491 1440 1508 1546 1660 1830 1686 1535 1423 1628 1430 1662 1592 1365 1425 1442 1450 1266 1189 1400 1490 908 1010 901 978 904 1261 1607 1587 1156 1151 1184 1265 1316 1206 1089 1028 1050 753 1080 1231 1243 1377 1065 948 1042 952 1185 1566 1646 1167 1528 1649 1176 1190 987 675 998 675 1071 1037 867
1618 1756 1985 1806 1899 1273 1228 1158 1590 1314 1482 1654 2235 2546 2568 2169 1934 1815 1876 1570 1564 1390 1373 1220 1392 1405 1360 1290 1351 1305 1335 1614 1581 1579 1691 1424 1487 1392 1444 1538 1459 1447 1419 1336 813 978 1037 725 994 1754 1704 1719 1353 1213 1360 1352 1198 1182 1217 1052 1045 1062 1138 1009 1132 818 1080 1318 1516 1123 1330 1593 1905 1354 1332 1553 1618 1431 1207 1053 750 802 739 1059 902
1697 2033 1982 2205 1604 1089 1035 1104 1060 1416 1874 2385 2599 2272 2090 1916 1777 1610 1545 1413 1379 1457 1265 1059 1076 1117 1115 1060 1081 1070 1084 1248 1294 1327 1561 1452 1282 1273 1356 1440 1548 1557 1408 1226 1068 892 1062 1463 1703 1727 1643 1605 1633 1584 1503 1368 1451 1371 1405 1429 1271 1087 1087 1032 1060 1234 1520 1390 1406 1346 994 1445 1881 1867 1498 1311 1619 1449 940 687 687 664 674 554 926
1829 2026 1980 1631 1416 922 1505 1422 1333 1552 2622 2118 2127 2015 1870 1755 1563 1396 1177 1174 1212 1149 1102 976 844 758 944 905 760 945 901 1076 1064 1301 1542 1340 1177 1175 1353 1450 1430 1404 1372 1188 1050 992 1314 1621 1847 1843 1648 1474 1135 1212 1389 1367 1304 1454 1248 1305 1182 1075 1064 1171 1454 1429 1287 1269 1769 1574 1434 1477 1486 1778 1409 1459 1877 972 1467 800 577 619 656 761 561
1923 1977 2223 2233 1544 1445 1494 1738 1865 2142 2386 2162 2026 1896 1803 1564 1403 1282 1099 1014 798 850 918 862 825 906 945 760 762 851 947 997 939 965 1087 1263 1329 1304 1297 1283 1259 1325 1268 1176 1172 1204 1382 1694 1738 1537 1649 1316 1073 1075 812 1048 1071 1118 1022 1098 1413 1184 1139 1160 1286 1225 1259 1447 1672 1685 1534 1450 1630 1686 1732 1594 1457 1434 945 752 1000 772 724 766 642
1794 2019 2225 1645 1639 1713 1882 2582 2300 2687 2423 2122 2061 1881 1496 1249 1501 1256 1026 864 836 847 780 964 1045 1023 1026 1034 925 848 860 911 883 808 863 987 1276 1353 1305 1305 1276 1204 1137 1107 1095 1066 1502 1628 1496 1620 1428 1122 1053 1131 978 979 901 1073 1172 953 1004 1203 1445 1417 1279 904 989 986 1310 1550 1509 1458 1379 1481 1423 1219 1204 1167 1139 1173 1260 948 765 827 553
2066 2141 2064 2240 1701 1698 2140 2743 2434 2775 2425 2208 2122 1854 1776 1589 1388 1217 1025 964 907 849 680 675 631 480 934 828 1083 933 747 618 743 802 740 688 711 752 1122 1156 1505 1242 1148 1136 1106 1088 1284 1416 1525 1404 1288 1438 1432 1512 1660 1020 1376 1157 1395 1048 904 844 1101 1336 1410 1191 1302 1347 1274 1144 954 966 1062 1137 1333 1355 1117 988 936 783 847 841 818 642 700
2022 2396 2074 2417 1746 2096 2028 2085 1996 2551 2298 2199 1860 2120 1985 1925 1807 1761 1333 907 1016 1061 800 654 354 164 210 314 435 743 856 559 413 306 359 596 547 501 641 763 905 1496 1340 1070 1007 1027 1194 1328 1354 1380 1189 1142 1095 1180 1359 1544 1341 638 1073 760 821 838 614 386 923 1088 1313 1406 1292 990 1136 992 1011 1129 1260 1256 1083 1297 1244 997 791 895 781 566 580
2118 2114 2326 2370 1966 2191 2008 2193 2164 2998 2481 2229 2203 2157 2096 1887 1753 1600 1422 1198 1004 743 535 312 332 136 51 133 147 361 420 433 574 332 264 490 567 548 544 642 822 980 1265 1122 1130 1029 1140 1387 1434 1349 1232 1152 865 986 1204 1374 1432 1411 698 601 572 784 645 471 696 646 827 908 951 964 1095 1087 1224 1314 1117 940 722 611 735 721 778 678 741 1038 891
2145 2261 2536 2516 2397 1997 1871 2259 2919 3172 2474 2290 2116 1985 1472 1379 1200 1117 990 971 871 715 446 342 380 243 2 16 44 128 118 292 364 328 238 403 640 595 687 566 781 839 775 1278 1086 1246 1321 1195 1338 1455 1429 1395 1344 797 965 1014 1147 1257 1332 1258 715 979 1086 514 913 523 521 582 958 546 813 879 1009 1104 1057 1241 1443 1605 1012 1242 1038 1074 1213 1283 1045
2331 2480 2605 2637 1654 2123 2582 2544 2559 3082 2835 2382 2026 1875 1610 1450 1362 1103 945 881 801 697 528 472 296 35 58 79 69 226 177 267 287 302 300 450 566 566 730 702 640 760 583 554 523 560 341 400 717 1449 1430 1381 1369 1093 1046 1130 1054 1085 1151 1267 1296 1461 1336 1296 820 473 436 400 593 690 667 692 818 1004 1008 704 985 1067 981 760 803 885 1102 950 969
2386 2468 2482 2554 2492 2059 2244 2726 2374 2512 2956 2438 2144 1997 1655 1496 1382 1139 884 797 735 773 670 429 184 53 59 57 73 127 201 181 188 212 260 214 259 384 562 671 420 286 249 280 356 308 318 474 562 735 785 1336 1413 1236 1150 1103 1042 1072 1003 1008 1024 1173 1352 1393 1207 724 368 193 326 266 273 212 331 533 712 1006 1027 1113 756 453 619 702 796 551 744
2255 1970 2129 2332 2397 2626 2673 2428 2450 2602 2700 2596 2346 2124 1713 1611 1619 1162 808 711 631 610 333 138 148 115 154 107 27 4 83 319 321 354 209 120 118 197 277 323 383 271 126 172 207 244 420 508 679 624 1082 1361 1618 1575 1446 1316 1314 1406 1117 1161 996 1115 1148 1328 1264 1230 740 617 640 642 358 186 204 141 216 314 551 503 440 456 532 575 632 458 534
2199 2012 1917 1830 1506 1609 1942 1895 1595 1706 2435 2529 2608 2233 2033 1747 1298 1274 1213 912 666 377 175 183 201 202 183 146 75 51 23 211 390 363 170 33 87 101 95 182 293 106 93 6 60 152 212 571 1144 1306 1299 1324 1338 1388 1311 1400 1384 1330 1232 1214 1170 1084 1013 912 1102 1110 1116 855 670 548 554 435 197 13 65 282 256 176 54 57 4 28 103 174 224
2222 1858 1304 1368 1300 1130 808 833 746 711 1174 1426 1563 2500 2083 1666 1222 1437 1299 1153 795 486 310 294 222 178 128 97 50 42 123 225 216 279 232 42 24 76 202 113 96 16 0 0 46 36 132 194 240 260 516 914 1050 1121 1094 1030 988 931 1125 1129 1044 1005 977 1060 1040 910 726 568 417 161 46 31 10 0 0 0 0 0 0 23 0 0 0 2 3
Wind_Speed
30 34 34 34 32 31 32 32 33 33 33 34 35 34 33 33 35 36 36 35 35 35 34 34 34 35 34 33 33 31 29 28 27 27 24 25 27 28 28 28 28 26 26 23 22 20 20 19 18 16 15 15 13 13 14 14 14 15 15 15 15 15 15 15 13 14 15 16 16 15 nan 14 12 12 13 14 14 12 12 nan nan nan nan nan nan
34 35 34 33 34 33 33 34 36 36 34 36 35 34 34 35 36 36 36 34 34 34 34 34 32 32 32 32 33 32 31 29 29 28 27 25 25 28 28 28 27 27 26 24 22 20 19 19 17 17 15 15 14 14 15 15 14 15 15 16 16 16 15 14 14 14 15 14 16 17 15 14 12 nan nan nan nan nan nan 17 17 nan nan nan nan
36 36 34 35 35 35 34 35 37 37 36 37 37 35 34 36 35 36 35 34 33 33 34 33 34 35 35 33 33 33 32 31 30 29 28 27 26 27 27 27 26 24 24 21 20 19 19 20 18 17 16 15 14 15 15 15 15 15 15 14 14 15 14 13 14 14 14 15 15 18 16 14 12 12 12 nan 15 16 17 18 17 nan nan nan nan
37 35 34 35 35 34 35 36 35 39 38 38 38 38 38 37 36 36 35 34 33 32 32 34 34 33 34 33 33 33 32 31 30 30 29 28 27 27 26 25 26 25 24 22 20 18 19 21 18 17 16 16 15 15 15 16 16 14 15 14 14 13 12 13 12 12 12 14 16 14 11 11 11 12 12 12 14 16 16 16 18 nan nan nan nan
36 35 34 33 34 34 36 37 36 37 38 40 41 40 40 38 37 35 34 34 34 33 33 34 35 35 35 34 34 33 32 31 30 29 29 30 28 27 26 26 26 26 24 23 21 18 19 19 18 18 17 16 15 15 16 16 16 15 15 14 14 14 13 10 10 8 6 4 6 5 11 10 9 11 11 13 14 14 14 15 17 nan nan nan nan
35 35 35 34 34 36 36 37 39 39 39 40 43 44 42 40 39 36 35 35 35 35 35 34 35 34 35 34 34 32 31 31 29 27 26 28 27 28 28 27 26 25 25 22 21 19 19 19 19 18 17 17 17 16 17 17 16 15 15 15 14 14 12 9 7 6 8 7 7 4 8 10 9 8 nan 12 13 15 15 16 17 16 nan nan nan
39 36 36 36 35 37 37 38 41 41 41 42 42 44 44 42 40 37 36 36 36 37 36 34 34 34 35 34 34 33 32 31 29 26 25 26 27 27 29 28 27 26 25 24 21 20 19 19 19 18 17 18 18 17 17 17 16 16 16 16 15 13 11 10 5 3 4 8 7 7 7 9 9 8 10 11 12 14 16 16 16 16 nan nan nan
37 37 38 38 36 38 37 39 42 42 43 44 43 43 43 43 41 38 37 37 38 37 36 34 33 33 34 35 34 33 34 32 30 28 25 26 27 27 27 28 27 26 24 23 21 20 19 19 19 19 17 18 18 18 18 18 17 17 16 16 16 14 12 9 5 8 9 3 5 7 6 9 9 8 9 10 11 13 15 17 16 16 nan nan nan
36 38 39 39 39 42 39 40 41 43 44 44 45 44 44 43 41 39 38 38 37 37 37 34 31 33 34 34 33 33 34 33 32 30 26 25 26 26 26 26 24 24 23 21 20 20 19 18 18 19 18 18 18 19 18 18 19 18 17 17 16 14 11 8 6 5 7 6 6 7 8 8 8 9 10 10 11 10 11 12 15 17 nan nan nan
37 38 39 39 41 43 41 40 41 44 44 45 46 46 46 44 41 39 39 39 35 35 37 33 31 34 35 35 33 33 33 33 30 29 27 28 26 26 27 26 25 24 22 21 19 19 18 18 19 19 19 19 19 19 18 17 16 17 16 16 15 14 12 6 8 12 5 6 8 7 9 12 10 8 10 nan nan 13 18 23 21 19 16 nan nan
39 38 39 42 46 43 42 42 42 44 45 45 46 45 44 42 39 37 37 36 33 32 33 32 33 35 34 35 33 33 32 33 32 28 29 26 25 26 28 27 24 23 22 20 19 18 18 18 18 19 20 19 19 18 18 17 18 17 16 14 13 12 11 7 9 7 8 9 9 8 9 7 9 9 9 9 10 12 14 15 17 17 nan nan nan
39 39 40 42 47 44 43 44 43 43 44 44 44 42 40 37 35 34 34 34 32 31 31 33 35 34 33 35 37 38 35 30 28 25 28 26 26 27 28 27 25 24 22 19 19 18 19 20 20 20 20 19 18 18 17 18 18 16 14 14 12 11 7 5 5 10 8 10 10 6 6 9 10 10 9 11 9 10 11 13 15 17 nan nan nan
38 39 42 44 45 44 45 45 44 44 44 43 42 39 37 36 34 33 33 32 31 31 33 36 35 33 33 35 39 39 36 31 31 24 24 27 28 28 27 26 24 24 23 22 20 21 21 21 21 21 20 19 19 17 18 18 17 15 15 14 12 10 9 4 6 10 12 11 9 8 10 9 11 10 8 8 9 9 10 12 14 16 nan nan nan
39 42 43 44 43 46 45 45 45 44 43 41 40 38 37 36 34 33 33 32 31 31 33 35 35 35 35 36 39 38 34 33 35 26 30 29 28 27 25 25 24 23 24 24 23 22 21 21 21 21 21 20 18 17 18 19 17 15 15 16 13 11 9 6 3 13 13 12 9 10 9 9 10 9 8 9 7 7 9 12 14 15 16 nan nan
41 44 45 46 46 45 46 45 45 45 43 40 39 38 37 36 35 34 34 34 32 32 34 37 37 37 39 39 40 36 33 32 33 32 32 29 28 26 24 24 24 24 23 24 23 23 22 21 22 22 22 21 19 18 19 18 17 17 17 16 14 11 10 10 11 15 14 12 12 10 11 11 10 5 10 8 9 8 9 11 12 14 15 nan nan
43 46 47 46 45 44 44 46 46 45 43 40 37 37 36 35 36 35 34 35 34 33 35 37 39 42 43 40 39 34 32 33 34 34 32 29 25 24 24 24 23 23 23 23 24 25 24 23 23 22 22 21 21 19 19 18 20 19 18 17 14 11 6 4 15 15 14 14 13 12 13 13 7 6 10 10 10 10 10 9 10 11 14 nan nan
45 46 45 44 44 42 44 46 47 47 43 38 35 34 33 33 34 34 35 36 37 36 36 38 41 44 43 40 35 32 34 35 35 34 31 30 27 26 27 26 20 21 23 24 24 25 25 25 24 24 23 22 21 20 18 19 21 21 19 17 16 16 9 9 17 16 16 17 14 13 14 13 9 10 10 10 11 12 8 9 10 11 12 nan nan
45 44 43 44 41 44 45 45 45 43 39 35 33 32 32 32 33 34 35 36 36 35 37 39 41 38 41 39 35 34 34 35 34 33 32 30 29 28 28 24 23 24 25 24 24 25 25 25 25 25 24 23 22 21 20 18 21 22 19 18 17 17 11 8 18 18 20 16 17 15 16 20 10 7 11 11 10 12 11 9 9 11 12 14 15
42 44 44 41 47 47 46 45 44 39 36 31 29 29 32 31 32 33 33 34 35 36 39 36 37 42 42 41 37 34 34 34 34 32 33 31 30 27 28 24 24 25 26 25 25 25 25 25 26 26 25 24 23 22 21 21 21 22 22 18 20 18 14 10 19 20 20 17 17 17 20 18 13 13 13 11 12 11 12 12 11 10 11 12 14
40 40 43 44 46 47 45 42 40 36 32 28 28 30 31 32 32 31 30 33 35 36 38 39 41 43 44 39 35 33 32 32 33 32 31 31 26 26 27 27 26 26 27 26 26 25 25 25 26 26 26 25 24 23 23 23 23 24 23 22 20 20 16 17 21 21 20 22 18 21 23 16 14 16 14 13 12 12 12 13 12 11 11 11 12
38 40 42 42 45 44 43 38 34 31 30 29 27 27 28 31 31 30 28 31 33 37 40 40 38 37 34 32 28 27 27 27 26 27 29 27 28 28 27 27 26 26 27 26 25 25 25 25 25 26 25 24 24 24 24 23 23 23 24 22 23 19 20 22 21 22 21 23 19 26 22 18 14 18 16 14 14 13 13 12 12 12 13 13 13
39 41 41 42 41 40 38 33 29 30 26 24 24 22 24 25 27 25 24 28 32 36 35 32 30 27 28 25 23 25 21 22 25 28 25 27 26 26 28 28 26 24 25 25 25 25 24 24 24 24 23 19 16 17 22 23 23 23 21 21 18 22 24 22 22 23 23 23 24 28 23 19 18 20 19 18 16 15 14 12 12 14 14 14 14
40 41 41 41 38 35 31 27 24 24 24 23 21 22 25 24 22 21 24 26 29 28 27 25 23 23 22 22 23 23 25 27 25 25 26 28 27 26 27 29 29 25 24 25 24 24 24 24 24 22 19 15 13 20 18 21 23 21 17 18 20 22 25 24 23 24 23 27 28 31 25 21 21 21 21 20 18 16 14 14 14 14 15 16 15
40 40 40 38 35 29 26 22 22 21 20 20 22 22 23 19 17 17 22 22 22 22 20 21 22 22 22 23 24 25 26 27 29 28 28 26 26 25 27 28 28 27 25 23 23 21 24 24 23 20 14 15 19 18 19 20 20 21 21 21 22 24 24 24 24 25 25 25 30 32 26 23 20 22 22 22 21 17 16 16 16 15 15 16 17
39 40 38 35 32 26 21 20 19 20 22 20 20 20 17 17 14 17 17 16 16 18 21 21 22 22 23 23 26 25 26 26 25 21 21 23 24 24 21 21 22 21 19 19 18 19 16 18 19 16 18 18 18 20 18 20 19 20 22 21 23 23 23 25 25 26 26 28 32 31 27 25 23 21 24 23 22 18 18 18 18 17 15 16 17
38 37 37 33 27 22 19 18 19 20 21 20 17 16 15 15 15 17 14 10 15 14 20 21 22 22 22 23 24 24 24 26 22 17 18 22 22 22 20 21 19 22 17 18 17 16 15 16 17 17 17 17 18 18 18 18 19 19 21 21 21 22 22 23 25 25 27 30 32 31 28 26 25 23 25 24 23 21 18 20 19 19 17 17 18
35 37 34 27 23 21 20 20 19 18 18 18 17 15 14 17 17 14 14 14 17 19 21 22 21 21 21 22 22 22 23 23 25 25 23 21 21 20 20 20 19 19 19 19 17 15 14 15 16 16 16 16 16 18 16 17 18 19 19 19 19 20 22 22 23 24 27 30 33 31 28 27 25 25 26 26 24 23 21 20 21 20 19 17 17
33 36 29 23 20 23 23 23 20 17 16 16 18 16 17 17 16 13 16 16 17 18 18 19 19 18 19 21 20 21 22 23 23 23 23 20 19 20 18 19 19 19 19 18 17 15 14 15 16 16 14 15 15 15 16 18 17 17 19 18 20 18 21 22 22 24 28 30 31 30 28 27 27 25 26 26 26 24 22 23 23 21 20 18 18
36 27 22 21 25 24 22 21 19 15 15 15 20 19 17 14 15 18 18 21 16 16 16 16 15 17 19 19 20 20 20 21 21 21 20 19 18 17 18 19 18 18 18 16 17 15 14 14 15 14 15 15 16 15 15 16 17 17 17 18 18 19 20 21 22 24 26 29 29 31 29 28 28 26 26 25 26 25 23 23 24 24 21 22 19
31 23 20 22 21 20 19 18 18 12 12 14 18 16 15 15 18 17 19 18 17 15 15 14 15 15 18 18 18 18 17 18 20 21 16 15 16 15 17 17 17 17 15 15 15 14 14 13 13 13 15 15 16 16 15 15 15 18 17 18 19 19 21 20 20 23 25 27 30 30 30 28 28 27 26 25 24 25 23 24 24 26 24 24 22
22 19 21 23 21 18 16 13 14 12 13 14 14 17 17 14 15 15 15 16 17 15 14 14 13 14 15 17 16 16 17 19 19 15 16 15 17 15 14 12 16 14 12 14 13 13 13 12 13 14 14 15 15 16 13 15 14 16 16 16 19 19 20 20 20 22 23 27 28 29 29 29 29 27 27 26 26 25 25 24 25 28 26 25 23
19 19 19 19 18 13 11 9 11 11 13 13 14 16 15 11 11 11 12 15 15 14 12 12 12 12 14 15 15 15 16 17 16 15 15 16 15 14 16 11 12 14 11 13 11 11 12 13 14 14 15 14 15 15 15 14 14 15 16 14 17 18 18 20 19 21 23 24 25 27 30 29 29 27 27 26 26 26 25 26 28 27 27 26 26
20 19 17 16 13 7 6 7 10 12 13 14 15 17 14 12 9 9 13 14 12 12 11 9 12 13 13 13 13 15 15 16 12 12 14 13 14 14 13 11 12 9 11 11 9 13 11 13 14 13 14 13 14 15 14 15 14 15 14 17 17 16 19 19 20 20 20 22 23 25 29 29 27 27 26 25 25 26 27 29 29 26 24 25 25
21 18 19 19 9 4 5 8 12 15 14 16 17 16 15 11 9 10 12 12 11 10 11 12 12 10 11 12 12 16 14 16 14 11 12 12 12 12 11 15 11 10 10 10 10 12 14 13 14 13 13 12 14 14 15 14 15 16 15 16 17 18 18 18 20 21 21 21 23 23 25 26 27 27 26 23 23 24 26 27 26 24 21 21 24
20 20 22 19 10 8 11 14 14 16 15 16 15 15 13 10 10 10 10 11 11 10 13 13 12 12 11 12 12 13 15 16 14 12 12 14 12 12 11 13 10 11 9 11 10 11 13 12 13 13 12 13 14 15 14 16 15 16 18 15 17 18 17 19 21 19 20 21 20 21 22 19 24 27 25 22 22 18 22 25 24 23 22 22 23
18 18 17 15 12 11 14 18 15 15 14 14 15 14 13 11 10 11 11 11 12 12 13 13 14 13 13 13 13 14 15 15 14 12 13 14 12 12 13 12 11 11 11 10 11 12 8 14 12 10 14 13 14 16 15 16 15 16 16 16 18 17 18 18 19 18 20 19 18 19 17 17 16 22 25 22 18 21 22 24 26 27 23 23 22
16 17 16 15 14 13 17 19 14 14 13 16 12 14 12 10 11 12 14 14 14 14 13 13 13 14 13 14 15 15 15 15 13 13 13 12 11 11 13 12 12 12 12 13 12 9 10 10 10 10 13 13 13 15 16 16 16 16 15 16 17 17 18 20 19 19 21 18 16 17 16 15 17 21 20 19 21 23 23 22 26 25 25 22 22
17 16 15 15 14 15 13 10 10 12 15 12 8 11 10 11 13 14 16 16 16 15 14 13 14 14 14 15 15 16 16 16 14 13 12 12 11 12 12 13 12 12 12 15 14 11 10 10 7 12 12 13 12 14 16 16 15 16 17 16 16 16 18 18 20 19 18 19 22 16 14 18 17 18 17 13 16 23 22 24 24 27 25 24 24
17 16 16 14 15 14 13 8 8 10 5 9 12 11 13 14 15 17 18 17 16 15 14 14 15 14 15 16 16 15 16 16 16 14 12 12 12 12 11 12 12 12 11 12 15 11 9 9 10 13 14 13 14 15 15 15 16 16 17 16 15 17 16 19 19 19 20 22 21 18 13 15 17 18 17 15 17 18 23 22 21 24 28 30 25
17 17 16 16 14 15 9 8 8 9 9 12 11 13 13 14 15 17 17 16 15 15 15 15 14 15 15 16 16 15 17 17 17 16 14 13 12 12 12 11 12 11 11 10 14 11 10 10 11 12 14 14 14 15 15 14 16 16 16 17 16 16 17 18 18 19 21 21 20 20 18 17 18 19 18 15 19 14 22 26 24 28 30 26 20
17 17 14 16 18 9 12 9 12 14 13 12 13 13 14 15 15 16 17 16 15 15 15 15 14 15 16 17 17 17 17 18 18 18 17 15 13 13 13 13 12 12 13 11 12 13 11 10 11 12 12 13 14 12 13 12 13 13 14 15 17 17 18 15 16 17 19 19 20 20 21 19 20 21 20 19 18 19 28 21 24 29 28 25 22
15 14 11 15 18 11 9 12 13 13 14 15 16 15 15 16 17 18 17 16 15 14 15 15 15 16 17 18 18 18 18 19 19 18 17 16 15 14 13 13 13 14 14 14 14 13 12 12 12 12 11 12 13 12 13 11 11 11 12 14 15 17 17 16 14 17 16 17 18 18 19 19 20 21 21 21 22 22 25 26 26 27 28 23 24
14 11 12 13 17 11 9 12 13 13 17 18 16 17 18 18 17 19 17 17 17 16 16 16 15 17 17 19 19 18 17 19 19 19 17 16 14 13 13 14 14 15 14 14 15 15 14 13 13 11 13 14 13 14 12 10 12 13 14 13 14 15 18 15 15 17 15 16 17 17 17 16 19 19 20 20 21 22 23 24 24 24 25 26 24
9 9 10 12 15 10 12 14 13 12 18 19 18 21 21 21 21 20 19 17 17 17 17 15 16 16 18 18 19 18 17 17 18 19 18 17 14 13 12 12 15 16 16 17 16 16 15 15 15 13 12 13 13 15 14 13 13 10 13 14 15 12 16 16 19 18 16 16 15 15 16 17 18 20 19 21 21 22 23 24 24 25 25 26 24
5 6 8 10 12 14 12 13 14 16 19 21 21 22 23 21 21 21 20 20 18 17 16 15 15 15 nan 18 19 18 17 17 17 17 19 18 16 14 12 12 13 16 17 17 17 18 16 16 16 14 13 12 16 16 16 16 15 18 15 15 13 14 16 17 17 20 15 17 18 15 19 15 18 18 19 21 21 22 21 21 21 24 24 22 23
7 8 9 10 12 14 17 15 18 19 21 24 24 22 22 21 20 19 19 18 18 17 16 16 15 15 nan nan nan 19 18 17 16 17 18 18 18 16 14 13 14 14 16 17 18 18 18 18 18 17 16 16 15 17 17 19 17 18 18 18 16 15 18 16 15 17 18 18 18 18 19 19 17 17 19 21 22 22 21 20 20 23 22 21 20
8 9 10 11 14 14 16 17 20 21 22 24 24 21 22 21 20 19 19 18 19 19 19 18 17 nan nan nan nan 20 20 19 18 18 18 17 17 19 20 19 17 16 16 18 19 19 19 20 20 18 19 19 18 17 18 19 20 20 18 18 18 17 16 14 18 21 17 17 18 19 21 21 20 20 20 21 19 20 20 19 21 22 22 23 23
10 12 13 14 14 17 17 17 19 20 22 23 22 21 21 20 19 18 19 19 20 22 22 21 20 nan nan nan nan 21 22 21 20 20 20 20 21 22 22 23 22 19 17 18 19 19 19 21 21 21 20 20 20 18 20 21 18 22 20 20 19 18 16 16 17 18 14 15 19 22 23 23 23 23 22 23 23 22 23 23 24 23 20 20 20
13 16 19 21 22 21 21 20 20 21 23 22 21 20 20 19 18 19 20 21 23 23 23 23 22 21 22 20 nan nan nan 23 23 24 24 25 25 25 23 24 23 20 18 18 19 19 19 20 21 21 22 22 21 22 21 21 19 21 22 20 19 19 18 17 17 17 14 17 22 21 23 24 25 24 23 25 25 25 25 26 26 26 25 26 24
17 24 28 29 27 24 24 28 31 31 26 23 20 19 19 18 19 20 22 22 23 23 23 24 22 22 23 22 nan nan nan 24 25 26 26 nan nan 25 nan 23 23 22 nan nan nan 20 19 21 21 21 22 22 23 23 23 22 21 21 19 22 20 20 19 20 18 18 17 19 19 22 22 22 24 nan nan 26 27 27 nan nan nan nan 27 27 31
25 33 35 32 28 28 33 34 30 31 34 34 23 15 17 19 20 21 22 23 24 24 24 24 23 23 24 nan nan nan 22 24 25 26 26 nan nan nan 23 23 nan nan nan nan nan nan 20 21 22 22 23 23 24 25 25 24 23 22 21 20 20 20 19 20 21 20 20 21 23 24 nan nan nan nan nan nan nan nan nan nan nan nan nan nan nan
Wind_Direction
290 290 289 288 289 291 294 294 294 292 292 294 295 301 303 304 309 307 306 307 308 308 308 308 310 312 311 309 307 304 302 304 304 306 309 313 314 312 313 312 311 311 309 308 304 302 297 294 291 287 284 280 277 279 277 274 277 277 287 295 290 289 290 285 279 274 270 264 262 265 nan 262 260 255 247 240 229 210 199 nan nan nan nan nan nan
290 287 285 289 288 290 294 294 294 293 292 293 294 296 302 303 307 307 304 305 306 304 303 303 303 304 308 309 305 304 303 303 303 305 309 311 312 312 312 310 311 312 311 308 304 301 298 296 289 283 283 280 279 276 272 270 278 281 279 285 288 292 292 291 281 282 279 273 268 270 268 265 259 nan nan nan nan nan nan 211 209 nan nan nan nan
287 286 286 289 289 292 293 293 293 293 292 292 293 295 297 300 303 308 306 302 302 302 301 300 302 307 311 310 304 304 304 304 304 305 307 307 309 309 310 311 311 311 310 306 305 305 302 291 291 288 285 281 277 275 273 267 271 275 279 278 284 286 289 288 290 284 285 282 283 274 273 271 265 264 257 nan 232 227 222 221 222 nan nan nan nan
290 287 286 287 289 289 290 291 291 294 293 292 294 297 300 301 303 308 307 302 300 299 300 300 302 307 308 305 304 304 304 304 305 306 306 305 306 307 308 308 309 309 308 305 301 302 300 295 295 289 284 282 278 280 278 278 269 274 275 278 283 284 290 292 287 290 296 308 311 313 283 276 277 255 256 249 245 235 232 237 239 nan nan nan nan
288 286 285 287 288 288 289 291 291 292 293 294 296 298 301 302 304 304 303 301 301 300 300 301 303 305 304 303 304 304 305 305 305 307 307 306 305 306 307 308 308 308 308 307 306 304 301 298 297 291 287 282 280 278 281 279 273 274 275 279 284 291 292 281 282 296 311 27 353 346 278 277 277 261 253 249 237 234 235 240 240 nan nan nan nan
284 283 283 284 286 289 288 290 293 293 294 295 299 301 302 304 305 303 301 302 303 302 300 298 298 300 302 303 303 303 305 305 305 306 305 302 303 306 307 306 306 306 305 303 302 302 302 297 295 293 286 282 279 278 282 279 277 276 276 278 283 286 284 280 294 327 5 353 40 280 280 284 276 281 nan 250 243 233 229 229 234 238 nan nan nan
280 280 281 283 283 287 288 291 294 295 296 298 298 302 304 304 306 305 303 302 302 301 296 294 294 297 301 301 301 302 305 305 303 302 298 297 300 304 306 306 307 305 304 304 304 304 300 298 295 292 286 284 281 278 280 280 277 275 274 276 277 283 283 279 308 52 36 58 280 281 275 269 276 279 268 263 250 241 232 230 232 235 nan nan nan
279 280 282 283 285 287 289 291 294 296 298 299 300 302 303 303 304 304 303 301 300 297 293 288 289 294 299 299 299 302 305 304 301 297 293 297 300 302 304 304 304 304 304 302 301 302 301 298 294 293 288 283 281 280 277 282 282 277 274 276 277 278 280 290 304 34 45 21 266 261 267 276 278 271 286 270 261 249 236 230 229 232 nan nan nan
280 283 285 285 286 292 289 290 294 299 300 301 302 302 302 302 302 301 301 301 298 295 289 283 286 293 296 296 296 300 304 302 301 297 294 294 297 297 297 298 300 299 298 298 299 300 298 295 290 286 286 285 282 277 278 281 280 269 267 267 270 275 285 301 20 58 38 285 289 291 281 289 283 281 270 264 261 266 253 256 260 241 nan nan nan
281 283 285 285 287 289 290 291 297 300 301 303 304 305 304 303 301 299 300 300 296 295 290 281 285 292 293 294 293 297 297 298 290 293 291 290 293 293 296 295 295 296 296 296 295 295 295 292 289 288 287 283 280 276 274 273 273 265 269 270 272 272 278 313 16 30 304 311 271 234 212 167 279 267 274 nan nan 248 239 230 226 226 235 nan nan
282 284 285 285 290 289 292 296 300 302 305 306 307 307 305 303 300 295 295 296 293 294 292 285 289 291 290 291 290 284 283 285 297 292 287 288 292 295 296 294 293 295 295 294 293 293 292 290 289 287 282 279 274 269 266 262 261 264 266 270 272 276 282 350 22 295 287 282 279 282 251 219 251 267 281 272 268 257 243 243 244 243 nan nan nan
284 285 284 286 289 292 297 301 302 304 306 307 307 308 305 303 299 295 295 294 293 294 291 288 289 288 286 285 281 282 283 287 286 286 290 293 295 296 294 293 294 292 292 291 292 291 281 272 277 277 273 272 270 267 265 262 262 265 270 273 278 289 300 345 17 286 291 270 271 281 290 273 258 260 278 277 272 269 259 250 250 247 nan nan nan
285 286 286 289 294 296 301 303 304 305 307 307 306 305 302 301 299 297 296 294 292 291 289 288 285 282 280 279 280 283 285 284 285 290 292 291 293 294 294 294 292 290 289 289 282 283 283 280 277 274 273 269 266 264 263 261 262 263 266 270 278 290 313 3 303 291 280 284 293 292 274 257 250 265 268 270 263 262 259 258 253 247 nan nan nan
288 289 291 294 295 301 301 302 304 306 306 304 302 300 299 299 297 294 294 292 290 288 286 286 284 280 276 274 276 278 281 287 285 292 290 289 291 294 294 294 292 288 287 286 285 283 281 277 274 272 269 264 259 257 255 255 255 259 259 259 268 287 308 330 296 282 281 282 273 268 271 274 267 277 266 265 272 269 264 256 250 247 245 nan nan
291 293 294 296 298 302 302 302 304 304 304 303 302 300 298 298 296 291 289 288 288 284 283 284 282 277 271 265 266 269 279 283 286 283 283 287 293 294 294 294 292 290 287 284 283 279 277 275 270 267 264 257 252 245 245 245 245 245 249 249 260 279 320 279 282 277 276 277 283 292 279 272 264 273 265 263 255 257 257 252 247 244 247 nan nan
293 294 296 298 300 300 303 303 302 302 301 301 300 298 296 294 291 287 283 282 279 276 277 278 278 275 270 264 264 274 275 276 274 276 279 283 287 291 285 279 282 290 286 284 282 279 277 276 272 265 261 256 250 242 238 236 237 238 241 244 252 268 264 214 270 272 271 275 273 267 271 270 244 261 265 255 252 252 253 250 245 243 243 nan nan
292 295 294 296 302 304 304 305 302 301 302 302 299 295 292 289 284 280 275 274 273 272 273 275 275 272 265 259 257 260 266 268 272 276 279 281 284 284 282 282 284 283 289 287 283 280 277 276 273 268 263 257 254 247 238 236 237 237 235 237 250 265 231 206 266 268 265 261 269 272 271 282 270 267 270 259 259 259 248 246 248 245 242 nan nan
295 292 294 300 302 303 304 303 303 305 304 300 299 295 289 284 278 274 271 268 267 266 266 264 264 263 263 259 255 259 264 269 273 276 279 280 281 284 285 291 294 293 288 286 282 279 276 273 271 268 265 261 257 254 244 234 241 244 237 237 248 261 246 220 266 263 264 269 264 262 264 256 257 270 273 272 259 251 248 247 248 248 244 240 238
298 303 303 307 303 302 303 304 305 303 303 300 299 294 288 280 275 273 268 267 268 268 269 270 265 263 264 259 259 262 266 270 274 277 279 282 281 282 289 291 292 292 290 286 284 280 276 272 270 267 263 260 256 250 244 237 234 239 247 243 257 262 256 244 262 262 266 268 264 262 260 254 246 271 273 271 263 259 251 244 243 242 241 240 239
300 302 301 301 301 302 302 303 303 305 302 296 297 297 286 277 272 271 269 267 267 266 265 262 262 265 264 263 263 266 270 273 277 278 280 282 287 285 288 291 294 294 293 291 287 283 279 274 268 266 263 259 256 252 245 241 234 234 239 251 263 272 261 255 256 258 258 252 254 260 263 258 262 273 274 269 263 257 251 246 241 239 239 241 241
299 302 301 300 301 302 304 302 302 302 294 295 292 287 278 273 275 276 275 274 270 266 260 259 260 268 270 267 270 265 269 273 272 275 282 283 277 285 290 289 291 292 292 290 288 285 279 276 272 265 261 257 257 256 248 243 241 236 238 242 268 267 259 256 256 255 255 261 261 260 263 260 265 270 272 267 263 261 256 250 246 241 238 236 238
303 300 299 301 301 302 305 305 306 305 301 287 285 282 277 275 269 270 274 272 267 266 265 262 270 272 274 276 272 272 272 275 279 279 276 282 285 286 289 290 287 290 294 293 291 286 282 278 275 268 261 260 260 262 263 258 253 245 243 245 255 258 260 260 256 255 255 257 257 265 263 258 265 269 269 265 259 262 260 255 252 248 242 238 237
302 301 299 301 300 301 305 307 305 293 293 292 289 278 273 262 251 258 271 265 268 269 270 276 274 276 277 274 270 271 273 270 275 275 282 278 282 280 287 294 298 296 296 294 292 289 286 281 275 270 266 264 263 253 249 254 257 264 259 257 254 256 261 260 258 255 255 252 256 268 264 260 264 265 266 265 262 262 259 256 256 253 247 243 239
301 299 299 297 298 299 303 304 296 294 282 268 260 266 262 254 242 256 255 261 260 266 271 275 271 271 272 272 271 272 271 271 276 283 284 281 282 288 286 284 289 298 298 295 293 289 288 283 277 275 273 262 252 254 250 249 250 254 254 253 254 254 258 259 257 256 252 256 259 270 268 263 255 262 262 262 263 265 263 259 257 258 251 248 246
300 297 295 294 295 297 297 295 289 278 270 259 258 261 263 251 239 245 248 235 249 250 261 259 265 267 269 270 272 273 274 270 273 278 283 287 293 292 290 296 293 292 301 291 291 285 289 279 273 272 258 253 253 248 240 245 245 248 250 249 252 255 255 255 253 255 256 255 260 268 270 264 255 255 265 264 264 263 263 260 258 256 252 251 249
297 294 290 289 289 293 292 282 276 273 266 258 258 259 254 254 262 264 249 236 256 264 266 265 265 268 270 272 273 273 276 282 280 276 285 283 285 286 294 286 287 287 288 283 280 278 274 271 269 265 259 254 249 247 244 241 245 245 247 249 250 255 254 255 256 253 255 257 263 269 268 264 260 253 266 266 263 263 262 262 262 260 250 254 255
291 285 284 286 292 291 280 270 265 265 269 266 255 246 245 256 257 241 246 261 266 266 263 263 267 271 275 278 279 280 279 275 282 289 289 292 287 287 286 285 286 284 285 279 279 274 269 268 266 263 257 252 250 250 247 246 234 243 250 252 249 250 253 252 254 257 257 258 264 271 268 265 260 256 265 266 265 262 263 263 264 261 260 259 261
285 283 285 287 295 283 267 261 262 262 263 265 256 248 244 252 256 266 266 263 266 265 265 267 272 278 283 284 285 283 280 282 285 287 286 285 284 279 279 282 281 281 282 283 279 273 268 263 262 259 259 254 255 249 244 244 244 239 244 247 252 247 248 251 253 253 255 259 264 269 269 266 263 254 264 266 266 264 265 265 267 264 262 263 264
278 273 279 292 272 262 268 270 258 266 264 249 244 233 239 239 252 260 263 272 268 265 267 274 282 284 285 284 284 282 284 286 285 284 280 277 278 275 277 278 278 273 283 278 275 270 265 261 262 262 261 256 250 247 246 243 241 244 243 245 247 252 251 251 251 256 255 257 262 270 272 269 264 259 261 263 266 266 266 264 265 267 262 260 261
263 262 271 279 284 282 279 279 271 272 257 236 237 230 228 234 242 252 261 269 266 265 271 277 276 281 283 281 282 286 286 271 264 260 270 279 271 273 263 275 279 284 291 287 276 270 267 266 265 262 264 257 252 250 244 244 243 243 244 248 252 248 255 254 255 253 256 258 259 265 274 270 265 263 255 260 264 266 265 264 266 266 263 263 261
267 287 279 280 285 279 276 277 268 247 233 225 227 238 228 232 241 248 258 263 267 270 270 272 275 278 277 282 285 282 281 281 281 295 296 293 283 284 296 274 286 288 294 285 276 273 272 269 263 261 257 253 252 252 247 243 240 249 246 247 251 250 252 255 254 255 256 256 258 264 269 272 268 264 261 257 253 262 264 260 261 267 265 263 261
293 292 287 290 295 284 278 278 261 242 239 245 242 241 245 250 246 246 262 266 267 268 268 271 282 282 278 281 284 284 281 274 284 304 308 299 296 289 281 300 280 287 287 271 260 272 272 270 268 260 251 249 250 250 247 245 241 245 251 250 251 250 252 253 254 256 255 258 258 260 265 268 267 267 265 261 261 257 259 265 262 263 269 267 266
305 296 304 316 309 281 271 269 257 257 262 258 256 256 258 253 253 254 263 260 263 264 266 270 266 270 275 284 281 274 275 283 292 307 299 296 296 289 289 304 292 285 284 291 295 274 264 269 276 267 265 260 255 255 253 251 248 246 246 255 250 248 247 250 251 254 257 259 259 259 267 267 264 264 265 265 262 262 259 253 265 264 270 273 270
300 291 313 327 314 242 255 263 262 266 261 256 255 255 252 245 250 261 258 263 264 268 272 275 276 277 284 285 290 291 296 292 305 311 302 300 295 293 307 295 293 287 290 284 291 288 287 281 273 278 270 267 264 260 256 259 257 261 258 251 253 248 250 252 253 252 253 255 257 258 259 268 266 256 262 266 263 264 260 262 268 275 277 274 270
302 307 321 330 326 292 278 268 259 255 253 251 248 247 244 250 258 258 258 263 266 274 285 286 289 289 288 289 292 292 294 297 310 309 300 298 300 295 299 284 290 295 299 299 294 281 266 283 280 259 276 267 265 261 257 256 257 262 262 258 261 261 255 249 255 255 260 260 259 260 260 261 261 263 253 259 274 270 269 267 270 279 282 277 276
320 321 328 341 344 307 278 261 256 253 250 238 244 242 249 246 250 250 258 263 265 270 276 288 290 291 291 287 285 287 290 293 300 303 296 294 298 299 292 297 295 292 300 295 292 270 287 276 270 277 265 271 267 267 262 261 259 257 259 260 258 254 259 258 255 254 259 261 265 264 264 258 252 241 255 271 269 282 281 270 270 272 278 278 275
320 332 338 349 342 307 251 234 244 251 247 238 239 254 248 252 255 257 257 258 258 260 265 271 278 281 281 285 290 292 293 291 294 294 288 287 292 292 293 296 299 301 299 290 273 301 271 255 277 272 271 265 267 272 267 264 265 266 263 262 260 259 256 257 260 256 254 255 260 275 269 267 258 248 241 239 269 273 281 272 272 268 272 271 272
313 324 333 335 326 273 241 243 216 215 230 245 268 265 261 261 258 256 255 255 253 254 261 269 274 279 283 285 287 289 291 292 292 290 289 288 284 285 290 295 297 297 300 298 297 266 274 283 273 271 272 268 268 264 267 268 268 267 266 263 262 262 260 259 255 259 260 259 253 236 258 263 262 262 256 252 253 271 272 272 268 267 261 263 264
303 316 314 315 310 278 232 218 225 228 253 278 272 269 269 265 262 263 263 261 258 257 261 266 269 276 280 281 281 285 287 289 293 291 286 285 287 284 284 288 290 289 289 287 285 299 292 286 280 277 267 265 262 263 261 263 265 266 269 272 270 268 260 258 256 255 256 255 261 271 247 263 263 263 261 258 250 251 282 280 270 257 262 248 243
293 301 307 300 282 257 257 268 276 291 284 273 279 282 280 277 273 271 267 262 262 263 264 267 274 279 283 285 285 286 286 287 285 283 283 278 277 277 277 280 281 283 286 288 288 287 289 285 280 276 278 272 264 265 266 266 268 269 268 263 264 268 269 264 262 259 256 259 261 261 269 264 265 262 272 261 265 274 256 274 276 273 269 272 254
290 294 296 289 280 277 277 294 285 285 271 270 279 281 281 278 275 272 268 268 264 266 270 271 275 277 283 287 289 287 287 285 283 284 285 285 279 276 275 274 273 274 276 277 283 294 289 278 274 274 277 274 272 272 272 272 275 273 269 271 268 267 266 267 269 270 264 259 260 263 264 266 263 266 259 262 268 263 267 254 266 265 268 273 278
292 291 287 290 289 286 286 273 263 270 266 267 272 272 275 273 272 270 267 264 267 272 273 277 279 283 287 287 287 288 287 286 284 281 279 282 286 284 281 278 274 276 275 278 282 284 289 287 279 274 270 265 262 268 271 274 274 262 268 271 271 273 275 275 273 268 265 268 266 266 265 263 269 266 263 263 260 262 268 270 267 275 274 270 266
291 286 276 277 270 273 269 254 251 256 261 267 269 269 269 267 268 269 268 266 261 262 269 274 283 287 288 289 288 288 287 287 287 283 279 274 272 274 279 281 284 280 282 283 283 284 282 281 283 275 275 262 260 263 260 255 254 263 262 264 276 281 274 278 280 273 266 258 258 259 260 272 265 263 265 265 266 265 263 263 265 269 273 273 269
275 272 277 283 279 279 269 254 246 261 270 271 268 271 271 267 267 268 267 268 271 271 274 279 282 290 292 288 286 286 283 282 282 285 281 273 269 267 269 269 271 274 272 277 279 278 281 281 282 279 271 274 272 269 261 259 263 269 273 266 262 263 279 285 285 267 260 265 263 266 263 258 265 266 268 265 264 267 271 272 269 267 268 270 271
300 296 295 288 285 288 271 280 278 276 274 275 274 275 274 274 272 274 275 275 279 283 285 285 289 291 nan 290 284 283 283 281 278 275 277 277 273 269 266 267 268 271 275 276 277 279 282 279 274 273 274 257 268 265 269 264 257 255 264 269 279 282 268 279 271 267 262 269 264 264 266 264 262 261 263 265 266 266 266 268 267 268 268 271 270
339 324 310 296 285 289 292 284 277 271 275 279 279 279 278 279 284 285 287 286 286 288 285 288 293 295 nan nan nan 279 277 274 274 273 275 282 285 286 283 280 276 273 273 274 275 276 278 280 282 278 273 269 257 268 266 264 260 260 258 263 267 254 265 280 286 280 276 268 266 264 265 267 270 268 268 272 275 276 283 283 280 277 275 272 271
342 308 301 291 292 280 277 281 270 269 272 278 283 279 278 280 284 283 282 282 282 278 276 280 282 nan nan nan nan 274 275 274 270 270 272 277 288 292 292 286 281 280 277 274 271 272 271 271 274 276 273 272 272 269 269 268 268 268 269 267 264 262 256 261 269 274 272 264 266 269 267 267 267 268 268 263 263 270 269 268 274 279 280 281 278
302 284 277 271 273 268 268 272 271 270 270 273 280 276 275 275 277 274 273 276 277 279 281 281 284 nan nan nan nan 277 274 273 274 271 270 274 283 291 291 286 281 279 277 274 273 270 272 271 268 270 272 271 275 271 272 273 271 275 276 275 276 266 266 268 269 283 275 279 280 273 269 268 267 265 265 268 264 260 262 258 257 261 264 266 270
281 271 263 256 251 249 251 258 258 259 260 268 269 269 266 269 268 267 271 271 279 282 283 286 290 291 292 290 nan nan nan 270 273 275 272 275 283 289 290 284 277 273 274 276 272 271 270 272 275 274 272 273 272 271 274 276 278 276 283 282 279 274 274 269 264 267 264 269 274 274 272 273 270 267 269 266 267 267 263 260 262 266 270 275 269
261 256 251 248 247 246 247 246 238 232 240 252 248 261 264 264 265 268 272 276 279 283 286 291 294 295 291 288 nan nan nan 276 274 272 274 nan nan 284 nan 279 272 269 nan nan nan 275 273 276 275 276 277 276 275 274 272 274 273 273 275 275 276 275 269 266 267 267 261 251 265 273 273 273 269 nan nan 270 270 268 nan nan nan nan 269 270 268
253 249 246 247 249 252 254 260 262 249 230 218 209 247 259 263 267 271 274 278 283 286 290 294 295 294 290 nan nan nan 279 277 275 274 274 nan nan nan 279 274 nan nan nan nan nan nan 276 278 282 282 282 283 283 281 280 277 276 276 278 278 277 275 267 266 265 265 260 264 264 265 nan nan nan nan nan nan nan nan nan nan nan nan nan nan nan